Weather History for Beaufort MCAS, SC

Change the Weather History Date:

Thursday, January 31, 2013

  Actual Average Record
Temperature  
Mean Temperature 50 °F -  
Max Temperature 57 °F 61 °F 83 °F (1975)
Min Temperature 42 °F 40 °F 17 °F (1966)
Degree Days  
Heating Degree Days 16    
Moisture  
Dew Point 30 °F    
Average Humidity 51    
Maximum Humidity 88    
Minimum Humidity 23    
Precipitation  
Precipitation 0.03 in - - ()
Sea Level Pressure  
Sea Level Pressure 30.02 in    
Wind  
Wind Speed 12 mph (West)    
Max Wind Speed 18 mph    
Max Gust Speed 26 mph    
Visibility 10 miles    
Events Rain    
Averages and records for this station are not official NWS values.
T = Trace of Precipitation, MM = Missing Value Source: NWS Daily Summary

Daily Weather History Graph

Daily Weather History Graph

Search for Another Location

Airport:

Trip Planner

Search our weather history database for the weather conditions in past years. The results will help you decide how hot, cold, wet, or windy it might be!

Date:

Astronomy

Jan. 31, 2013 Rise Set
Actual Time 7:17 AM EST 5:55 PM EST
Civil Twilight 6:51 AM EST 6:21 PM EST
Nautical Twilight 6:22 AM EST 6:50 PM EST
Astronomical Twilight 5:53 AM EST 7:19 PM EST
Moon 10:35 PM EST (1/31) 9:35 AM EST (1/31)
Length of Visible Light 11h 29m
Length of Day
10h 37m
Waning Gibbous, 80% of the Moon is Illuminated
Jan 31
Waning Gibbous
Feb 3
Last Quarter
Feb 10
New
Feb 17
First Quarter
Feb 25
Full

Hourly Weather History & Observations

Time (EST) Temp. Windchill Dew Point Humidity Pressure Visibility Wind Dir Wind Speed Gust Speed Precip Events Conditions
12:56 AM 51.1 °F - 46.9 °F 86% 29.79 in 10.0 mi WSW 11.5 mph - 0.02 in Rain Light Rain
1:56 AM 53.1 °F - 48.0 °F 83% 29.82 in 10.0 mi West 10.4 mph - 0.00 in   Overcast
2:35 AM 53.6 °F - 50.0 °F 88% 29.82 in 10.0 mi West 9.2 mph - N/A   Overcast
2:46 AM 53.6 °F - 50.0 °F 88% 29.82 in 10.0 mi WSW 12.7 mph - N/A   Overcast
2:56 AM 54.0 °F - 48.9 °F 83% 29.83 in 10.0 mi WSW 15.0 mph - N/A   Overcast
3:56 AM 53.1 °F - 44.1 °F 71% 29.86 in 10.0 mi West 12.7 mph 23.0 mph 0.01 in   Mostly Cloudy
4:56 AM 51.1 °F - 39.0 °F 63% 29.90 in 10.0 mi WNW 16.1 mph 23.0 mph N/A   Mostly Cloudy
5:56 AM 48.0 °F - 30.9 °F 52% 29.93 in 10.0 mi WNW 16.1 mph 26.5 mph N/A   Partly Cloudy
6:56 AM 46.0 °F 41.0 °F 30.0 °F 54% 29.97 in 10.0 mi WNW 10.4 mph 20.7 mph N/A   Partly Cloudy
7:56 AM 45.0 °F 38.9 °F 30.9 °F 58% 29.99 in 10.0 mi West 12.7 mph 19.6 mph N/A   Scattered Clouds
8:56 AM 46.0 °F 38.8 °F 30.0 °F 54% 30.04 in 10.0 mi WNW 18.4 mph 25.3 mph N/A   Scattered Clouds
9:56 AM 48.0 °F - 30.0 °F 50% 30.05 in 10.0 mi WNW 12.7 mph 21.9 mph N/A   Partly Cloudy
10:56 AM 48.9 °F - 28.0 °F 44% 30.07 in 10.0 mi WNW 12.7 mph 19.6 mph N/A   Partly Cloudy
11:56 AM 52.0 °F - 23.0 °F 32% 30.07 in 10.0 mi NW 13.8 mph 20.7 mph N/A   Partly Cloudy
12:56 PM 53.1 °F - 21.0 °F 29% 30.05 in 10.0 mi West 16.1 mph 26.5 mph N/A   Clear
1:56 PM 55.9 °F - 19.9 °F 25% 30.05 in 10.0 mi WNW 18.4 mph 24.2 mph N/A   Clear
2:56 PM 57.0 °F - 19.0 °F 23% 30.05 in 10.0 mi NW 18.4 mph 25.3 mph N/A   Clear
3:56 PM 55.9 °F - 19.0 °F 24% 30.07 in 10.0 mi West 17.3 mph 25.3 mph N/A   Clear
4:56 PM 55.0 °F - 18.0 °F 23% 30.08 in 10.0 mi WNW 15.0 mph 24.2 mph N/A   Clear
5:56 PM 52.0 °F - 19.9 °F 28% 30.11 in 10.0 mi WNW 9.2 mph - N/A   Clear
6:56 PM 48.9 °F - 19.9 °F 32% 30.13 in 10.0 mi West 4.6 mph - N/A   Clear
7:56 PM 44.1 °F 41.5 °F 25.0 °F 47% 30.15 in 10.0 mi WSW 4.6 mph - N/A   Clear
8:56 PM 42.1 °F 38.4 °F 26.1 °F 53% 30.17 in 10.0 mi WSW 5.8 mph - N/A   Clear
9:56 PM 45.0 °F 41.2 °F 24.1 °F 44% 30.19 in 10.0 mi West 6.9 mph - N/A   Clear
10:56 PM 44.1 °F 40.8 °F 24.1 °F 45% 30.21 in 10.0 mi West 5.8 mph - N/A   Clear
11:56 PM 44.1 °F 40.8 °F 25.0 °F 47% 30.21 in 10.0 mi West 5.8 mph - N/A   Clear